Flag for Germany Weather past 2 weeks in Dreieich, Hesse, Germany

Now
50 °F

Overcast.


Feels Like: 50 °F
Forecast: 51 / 67 °F
Wind: 3 mph from Southwest

Location: Frankfurt / M-Flughafen

Current Time: Apr 25, 2015 at 9:21:04 AM

Latest Report: Apr 25, 2015 at 9:00 AM


Visibility: 19 mi

Pressure: 29.85 "Hg

Humidity: 72%

Dew point: 42 °F

Location of DreieichLocation

Historic Weather in Dreieich — Graph

°F

Dreieich temperature yesterday

Maximum temperature yesterday: 70 °F (at 6:00 PM)
Minimum temperature yesterday: 36 °F (at 6:00 AM)
Average temperature yesterday: 54 °F

Past Weeks' High & Low Weather Summary

 TemperatureHumidityPressure
High77 °F (Apr 15, 6:00 PM)95% (Apr 10, 8:00 AM)30.47 "Hg (Apr 10, 8:00 AM)
Low35 °F (Apr 23, 6:00 AM)20% (Apr 21, 5:00 PM)29.84 "Hg (Apr 25, 6:00 AM)
Average55 °F54%30.19 "Hg
* Reported Apr 10 8:00 AM — Apr 25 8:00 AM, Dreieich, Weather by CustomWeather, © 2015

Note: Actual official high and low records may vary slightly from our data, if they occured in-between our weather recording intervals... More about our weather records

Advertising

Dreieich weather history for previous 24 hours

 ConditionsComfort  
Time TempWeatherWind HumidityBarometerVisibility
8:00 AM
Sat, Apr 25
48 °FOvercast.1 mph81%29.85 "Hg19 mi
7:00 AM45 °FOvercast.2 mph87%29.84 "Hg28 mi
6:00 AM43 °FOvercast.1 mph88%29.84 "Hg22 mi
3:00 AM44 °FPassing clouds.1 mph87%29.86 "Hg19 mi
1:00 AM47 °FPassing clouds.1 mph78%29.88 "Hg25 mi
12:00 AM49 °FPassing clouds.No wind72%29.88 "Hg25 mi
10:00 PM
Fri, Apr 24
56 °FPassing clouds.3 mph59%29.87 "Hg25 mi
9:00 PM62 °FOvercast.2 mph44%29.86 "Hg22 mi
8:00 PM66 °FOvercast.2 mph37%29.86 "Hg22 mi
7:00 PM69 °FPartly sunny.5 mph31%29.86 "Hg22 mi
6:00 PM70 °FPassing clouds.3 mph30%29.88 "Hg22 mi
4:00 PM69 °FPassing clouds.3 mph29%29.91 "Hg25 mi
3:00 PM67 °FPassing clouds.5 mph29%29.93 "Hg25 mi
2:00 PM66 °FPassing clouds.3 mph30%29.96 "Hg25 mi
1:00 PM64 °FPassing clouds.3 mph30%29.97 "Hg25 mi
12:00 PM61 °FPassing clouds.3 mph36%30.00 "Hg25 mi
10:00 AM55 °FPassing clouds.2 mph46%30.01 "Hg22 mi
9:00 AM53 °FSunny.1 mph53%30.02 "Hg22 mi
Weather by CustomWeather, © 2015

See weather overviewHow to use our weather pages